[[{"header":{"parameterUnit":"m.s-1","parameterCategory":1,"la1":30.2991,"la2":30.254,"lo1":-89.0895,"lo2":-89.0444,"dy":0.0017,"dx":0.0017,"nx":28,"ny":28,"refTime":"2024-04-17T03:00:00:Z","depth":0,"parameterNumber":2,"parameterNumberName":"U-component_of_WINDS"},"data":[0,0,0,0,0,0,0,0,0,0,0,0,0,0,0,0,0,0,0,0,0,0,0,0,0,0,0,0,0,0,0,0,0,0,0,0,0,0,0,0,0,0,0,0,0,0,0,0,0,0,0,0,0,0,0,0,0,0,-3.3648,-3.3649,0,-3.3709,-3.371,-3.3711,-3.3702,-3.3701,-3.37,-3.3699,-3.3762,-3.3764,-3.3767,0,0,0,0,0,0,0,0,0,0,0,0,0,-3.3528,-3.353,-3.3648,-3.3649,-3.365,-3.3709,-3.371,-3.3711,-3.3703,-3.3701,-3.37,-3.3699,-3.3761,-3.3764,-3.3767,0,0,0,0,0,0,0,0,0,0,0,0,0,-3.3583,-3.353,-3.3648,-3.3653,-3.3654,-3.3709,-3.371,-3.3711,-3.3703,-3.3701,-3.37,-3.3698,-3.376,-3.3764,-3.3768,-3.3822,0,0,-3.378,-3.3781,0,0,0,0,0,0,0,0,-3.358,-3.3588,-3.3652,-3.3653,-3.3654,-3.3697,-3.369,-3.3748,-3.3703,-3.3684,-3.3699,-3.3698,-3.3741,-3.3747,-3.3761,-3.3825,-3.3827,-3.378,-3.3782,-3.3784,-3.3785,0,0,0,0,0,0,0,-3.3576,-3.3585,-3.3672,-3.3652,-3.3654,-3.3653,-3.3659,-3.3701,-3.3721,-3.3686,-3.3685,-3.3693,-3.3742,-3.3758,-3.3763,-3.3828,-3.378,-3.3783,-3.3786,-3.3787,-3.3941,-3.3942,0,0,0,0,0,0,-3.3571,-3.3582,-3.367,-3.3674,-3.3613,-3.3656,-3.3663,-3.3685,-3.372,-3.3724,-3.3694,-3.3692,-3.3752,-3.3758,-3.3765,-3.3831,-3.3784,-3.3788,-3.379,-3.3939,-3.3941,-3.3943,0,0,0,0,0,0,-3.3568,-3.3579,-3.3668,-3.3628,-3.3639,-3.366,-3.3684,-3.3687,-3.3702,-3.3726,-3.373,-3.3706,-3.3751,-3.376,-3.3808,-3.3833,-3.3789,-3.3793,-3.3937,-3.394,-3.3942,-3.3962,0,0,0,0,0,0,-3.3565,-3.3578,-3.3598,-3.3629,-3.3641,-3.3709,-3.3685,-3.3689,-3.3709,-3.3707,-3.3739,-3.3743,-3.375,-3.3802,-3.3812,-3.3837,-3.3796,-3.3935,-3.3938,-3.3941,-3.3959,-3.3965,-3.397,0,0,0,0,0,-3.3561,-3.3601,-3.3599,-3.361,-3.3667,-3.3711,-3.3718,-3.3726,-3.3711,-3.3732,-3.3748,-3.3742,-3.3829,-3.3807,-3.3818,-3.3845,-3.3933,-3.3937,-3.3941,-3.3957,-3.3964,-3.397,0,0,0,0,0,0,-3.3572,-3.3605,-3.3603,-3.3654,-3.368,-3.3709,-3.3735,-3.3733,-3.3763,-3.376,-3.3769,-3.3777,-3.3826,-3.3841,-3.3816,-3.39,-3.3879,-3.3885,-3.3888,-3.3895,-3.39,-3.3894,-3.3799,0,0,0,0,0,-3.3581,-3.3613,-3.3641,-3.3683,-3.3696,-3.3714,-3.3733,-3.3738,-3.3764,-3.3775,-3.3794,-3.382,-3.3854,-3.3876,-3.3908,-3.3963,-3.397,-3.3987,-3.3992,-3.3997,-3.4001,-3.4032,-3.404,-3.3956,-3.3956,-3.3956,0,0,-3.3599,-3.3621,-3.364,-3.3686,-3.3706,-3.374,-3.3723,-3.3759,-3.3784,-3.378,-3.3827,-3.3843,-3.3873,-3.3925,-3.3949,-3.3939,-3.4027,-3.4002,-3.4005,-3.4007,-3.4037,-3.4045,-3.4052,-3.3958,-3.3958,-3.3957,0,0,-3.3648,-3.3668,-3.3706,-3.3727,-3.3758,-3.377,-3.378,-3.381,-3.382,-3.3868,-3.3866,-3.3897,-3.3954,-3.3976,-3.3995,-3.4056,-3.4052,-3.4067,-3.4094,-3.4124,-3.413,-3.4136,-3.4158,-3.4165,-3.4072,-3.4072,-3.4072,0,-3.3666,-3.3716,-3.3726,-3.3763,-3.3783,-3.3783,-3.3822,-3.3842,-3.3882,-3.3897,-3.3886,-3.3959,-3.3979,-3.4037,-3.4052,-3.4068,-3.4079,-3.4061,-3.4129,-3.4135,-3.414,-3.4161,-3.4169,-3.4073,-3.4073,-3.4073,-3.4073,0,-3.3736,-3.3772,-3.3799,-3.3838,-3.3862,-3.39,-3.3916,-3.394,-3.3943,-3.3957,-3.4006,-3.4031,-3.4069,-3.4084,-3.4087,-3.4142,-3.4135,-3.4127,-3.4105,-3.415,-3.4169,-3.4177,-3.4076,-3.4075,-3.4075,-3.4074,0,0,-3.3791,-3.3837,-3.3847,-3.3865,-3.3901,-3.3928,-3.3968,-3.4005,-3.4025,-3.4054,-3.4086,-3.4137,-3.413,-3.4151,-3.4158,-3.4185,-3.4232,-3.4173,-3.4174,-3.4182,-3.4294,-3.4298,-3.4307,-3.4231,-3.4232,-3.4233,-3.4291,0,-3.3842,-3.391,-3.3921,-3.3981,-3.4014,-3.4016,-3.405,-3.4076,-3.4091,-3.4122,-3.4139,-3.4174,-3.4162,-3.4175,-3.4202,-3.422,-3.4254,-3.4217,-3.4261,-3.4262,-3.425,-3.4317,-3.4322,-3.4374,-3.4299,-3.43,-3.4301,0,-3.391,-3.3941,-3.4004,-3.4037,-3.4051,-3.4081,-3.4117,-3.4147,-3.4178,-3.4187,-3.4213,-3.4217,-3.4258,-3.4238,-3.4296,-3.427,-3.429,-3.4302,-3.4304,-3.4306,-3.4282,-3.432,-3.4391,-3.4399,-3.4313,-3.4312,-3.4311,0,-3.3942,-3.4,-3.4045,-3.4061,-3.4101,-3.4122,-3.414,-3.4169,-3.4192,-3.4224,-3.4238,-3.4276,-3.4295,-3.4324,-3.4339,-3.4323,-3.4396,-3.4376,-3.4404,-3.4404,-3.4417,-3.4415,-3.4491,-3.4433,-3.4433,-3.4433,-3.4433,0,-3.3997,-3.4035,-3.406,-3.4087,-3.4131,-3.4145,-3.4188,-3.4205,-3.4232,-3.4264,-3.4269,-3.4299,-3.4318,-3.4351,-3.4363,-3.4409,-3.4418,-3.4427,-3.4429,-3.4425,-3.4424,-3.4436,-3.4432,-3.4435,-3.4435,-3.4434,-3.4434,0,-3.4038,-3.4056,-3.4105,-3.414,-3.415,-3.418,-3.421,-3.4238,-3.4254,-3.4294,-3.4305,-3.433,-3.4369,-3.4388,-3.4437,-3.4445,-3.4497,-3.4498,-3.4486,-3.4486,-3.4513,-3.4509,-3.4597,-3.4609,-3.4545,-3.4546,-3.4546,0,-3.407,-3.41,-3.4138,-3.4159,-3.4178,-3.4213,-3.4236,-3.4252,-3.4276,-3.4315,-3.4338,-3.4378,-3.441,-3.4474,-3.4497,-3.4535,-3.4535,-3.4564,-3.4541,-3.4536,-3.4534,-3.4531,-3.4534,-3.4567,-3.4567,-3.4568,-3.4568,0,-3.4126,-3.4134,-3.4167,-3.4203,-3.4231,-3.4261,-3.429,-3.4308,-3.4329,-3.4356,-3.4397,-3.4422,-3.4473,-3.4512,-3.4552,-3.4572,-3.4574,-3.4576,-3.4584,-3.4579,-3.457,-3.4574,-3.4495,-3.4573,-3.4572,-3.4572,-3.4572,-3.4572,-3.4162,-3.4189,-3.422,-3.4257,-3.4281,-3.4309,-3.4337,-3.4357,-3.4391,-3.4433,-3.4442,-3.4485,-3.4517,-3.4571,-3.4593,-3.4627,-3.4621,-3.4633,-3.4635,-3.4638,-3.4638,-3.4567,-3.4635,-3.4635,-3.4635,-3.4635,-3.4635,0,-3.4217,-3.4238,-3.4272,-3.4313,-3.4342,-3.4343,-3.4377,-3.4401,-3.4439,-3.4469,-3.4501,-3.4549,-3.4588,-3.4615,-3.4655,-3.4678,-3.468,-3.4688,-3.4685,-3.469,-3.4642,-3.4631,-3.4685,-3.4685,-3.4685,-3.4685,-3.4685,-3.4685,-3.4248,-3.4293,-3.4306,-3.4363,-3.4385,-3.4426,-3.4445,-3.4472,-3.4496,-3.4548,-3.4581,-3.4599,-3.4629,-3.4671,-3.4708,-3.4715,-3.4729,-3.4737,-3.4744,-3.4698,-3.4693,-3.4688,-3.4676,-3.474,-3.474,-3.4788,-3.4788,-3.4789]},{"header":{"parameterUnit":"m.s-1","parameterCategory":1,"la1":30.2991,"la2":30.254,"lo1":-89.0895,"lo2":-89.0444,"dy":0.0017,"dx":0.0017,"nx":28,"ny":28,"refTime":"2024-04-17T03:00:00:Z","depth":0,"parameterNumber":3,"parameterNumberName":"V-component_of_WINDS"},"data":[0,0,0,0,0,0,0,0,0,0,0,0,0,0,0,0,0,0,0,0,0,0,0,0,0,0,0,0,0,0,0,0,0,0,0,0,0,0,0,0,0,0,0,0,0,0,0,0,0,0,0,0,0,0,0,0,0,0,4.367,4.3671,0,4.3692,4.3692,4.3692,4.3728,4.3729,4.3729,4.373,4.3745,4.3744,4.3744,0,0,0,0,0,0,0,0,0,0,0,0,0,4.3656,4.3656,4.367,4.3671,4.3671,4.3692,4.3692,4.3692,4.3728,4.3729,4.373,4.373,4.3745,4.3744,4.3744,0,0,0,0,0,0,0,0,0,0,0,0,0,4.3668,4.3656,4.367,4.3691,4.3694,4.3692,4.3692,4.3692,4.3728,4.3729,4.373,4.3731,4.3745,4.3744,4.3744,4.3721,0,0,4.3743,4.3743,0,0,0,0,0,0,0,0,4.3667,4.3668,4.3688,4.369,4.3692,4.3708,4.3692,4.3702,4.3727,4.3714,4.373,4.3731,4.3731,4.3732,4.3734,4.3722,4.3722,4.3743,4.3743,4.3742,4.3742,0,0,0,0,0,0,0,4.3666,4.3668,4.3679,4.3688,4.3691,4.3698,4.3701,4.3694,4.3716,4.3716,4.3718,4.3721,4.3733,4.3734,4.3734,4.3723,4.3743,4.3743,4.3742,4.3742,4.3695,4.3694,0,0,0,0,0,0,4.3663,4.3667,4.3678,4.3679,4.3682,4.3698,4.3701,4.3702,4.3717,4.372,4.372,4.3722,4.3734,4.3735,4.3735,4.3711,4.3742,4.3742,4.3742,4.3696,4.3695,4.3694,0,0,0,0,0,0,4.3663,4.3664,4.3677,4.3674,4.3676,4.3697,4.3698,4.3702,4.3703,4.372,4.3724,4.3717,4.3735,4.3735,4.3725,4.3712,4.3742,4.3742,4.3697,4.3696,4.3695,4.3661,0,0,0,0,0,0,4.3662,4.3663,4.3656,4.3673,4.3676,4.3669,4.3697,4.3702,4.3703,4.3707,4.3719,4.3722,4.3736,4.3726,4.3725,4.3712,4.3741,4.3699,4.3697,4.3695,4.3663,4.3659,4.3654,0,0,0,0,0,4.3661,4.3643,4.3655,4.3656,4.3667,4.3668,4.3669,4.3688,4.3702,4.3694,4.3706,4.3721,4.3713,4.3724,4.3724,4.371,4.37,4.3697,4.3695,4.3665,4.3659,4.3654,0,0,0,0,0,0,4.362,4.3646,4.3659,4.3647,4.3655,4.3674,4.3664,4.368,4.3683,4.3686,4.3706,4.3709,4.3696,4.3702,4.3714,4.369,4.3709,4.3707,4.3687,4.3681,4.3677,4.3675,4.3741,0,0,0,0,0,4.3611,4.3611,4.3632,4.3619,4.3623,4.3643,4.3643,4.3658,4.3666,4.3669,4.3679,4.3685,4.3684,4.3683,4.3683,4.3665,4.3668,4.3655,4.365,4.3647,4.3644,4.3637,4.3632,4.3686,4.3686,4.3687,0,0,4.3589,4.3603,4.3601,4.3611,4.3619,4.3618,4.3645,4.3642,4.3641,4.3667,4.366,4.3668,4.3676,4.3662,4.3657,4.3666,4.363,4.3644,4.3641,4.364,4.3634,4.3629,4.3624,4.3685,4.3685,4.3685,0,0,4.3549,4.3559,4.3551,4.3559,4.3573,4.3587,4.3585,4.3602,4.3609,4.3602,4.3623,4.3621,4.3618,4.3624,4.3627,4.3592,4.3607,4.3591,4.3567,4.356,4.3556,4.3552,4.3541,4.3536,4.3589,4.3588,4.3588,0,4.352,4.352,4.3543,4.354,4.3544,4.3572,4.3563,4.3569,4.3581,4.3582,4.3594,4.3594,4.3601,4.359,4.3582,4.3583,4.3581,4.359,4.3555,4.3551,4.3548,4.3538,4.3533,4.3587,4.3587,4.3587,4.3587,0,4.3484,4.3484,4.3475,4.349,4.3493,4.3486,4.3508,4.3507,4.3522,4.3534,4.3528,4.3538,4.3541,4.354,4.3552,4.3531,4.3537,4.3551,4.3571,4.3541,4.3531,4.3527,4.3584,4.3585,4.3585,4.3586,0,0,4.3418,4.3448,4.3444,4.3452,4.347,4.3469,4.3464,4.3471,4.3471,4.3478,4.3474,4.3473,4.3488,4.349,4.3504,4.3497,4.3471,4.3512,4.3513,4.3505,4.345,4.344,4.3435,4.3481,4.3481,4.348,4.345,0,4.3382,4.3378,4.34,4.3389,4.339,4.3417,4.3413,4.3423,4.3435,4.3436,4.3448,4.3448,4.3466,4.3469,4.3463,4.3475,4.346,4.3478,4.3477,4.3477,4.3475,4.343,4.3418,4.3389,4.3446,4.3445,4.3445,0,4.334,4.3349,4.3339,4.336,4.3361,4.3357,4.3366,4.3367,4.3379,4.3388,4.3393,4.341,4.3406,4.3425,4.3419,4.3431,4.3432,4.3438,4.3437,4.3438,4.3459,4.343,4.338,4.3376,4.3439,4.344,4.344,0,4.3294,4.3303,4.3299,4.3305,4.3329,4.3326,4.3335,4.3348,4.3351,4.3358,4.3361,4.3366,4.3369,4.3372,4.339,4.3402,4.3382,4.3403,4.3389,4.3389,4.3384,4.3384,4.3334,4.3383,4.3384,4.3384,4.3384,0,4.3252,4.3245,4.328,4.3277,4.327,4.3295,4.3288,4.3299,4.3311,4.3311,4.3334,4.3332,4.3356,4.3357,4.337,4.3364,4.3365,4.3372,4.3376,4.337,4.337,4.3371,4.3374,4.3382,4.3383,4.3383,4.3383,0,4.32,4.3222,4.322,4.3245,4.325,4.3245,4.3265,4.3263,4.3277,4.3277,4.3278,4.3299,4.3302,4.3321,4.3326,4.3335,4.3325,4.3332,4.3321,4.3324,4.331,4.3312,4.3261,4.3256,4.3307,4.3306,4.3306,0,4.3172,4.3168,4.3193,4.3196,4.3206,4.3209,4.3214,4.3238,4.3242,4.3257,4.3253,4.3259,4.3264,4.3267,4.3282,4.3287,4.3295,4.3277,4.3296,4.3291,4.3296,4.3297,4.3297,4.3273,4.3272,4.3271,4.3271,0,4.3121,4.3134,4.3141,4.3152,4.3158,4.3167,4.3178,4.3178,4.3205,4.3208,4.3213,4.3217,4.3226,4.323,4.3239,4.3247,4.3263,4.3265,4.3263,4.3257,4.3252,4.3256,4.3311,4.3266,4.3267,4.3267,4.3267,4.3267,4.3081,4.308,4.3098,4.3106,4.3117,4.3127,4.3128,4.3144,4.3149,4.316,4.3173,4.3176,4.319,4.3203,4.321,4.3212,4.3222,4.3217,4.3216,4.3215,4.3213,4.3252,4.3213,4.3213,4.3214,4.3214,4.3214,0,4.3033,4.3047,4.3054,4.307,4.3076,4.3094,4.3107,4.311,4.3114,4.3126,4.3132,4.3138,4.3144,4.3161,4.3168,4.3167,4.3174,4.3168,4.3168,4.317,4.3203,4.3206,4.3161,4.3161,4.3161,4.3161,4.3161,4.3161,4.3008,4.3008,4.3022,4.3028,4.3041,4.3047,4.3053,4.3063,4.3073,4.308,4.3086,4.3098,4.3112,4.3121,4.3127,4.3132,4.3133,4.3124,4.3131,4.3162,4.3167,4.3172,4.3174,4.3124,4.3124,4.3098,4.3098,4.3097]}]]